COSMOS 1275 DEB, 42164

Orbit data source: Space-Track

COSMOS 1275 DEB, 42164 is space debris in LEO originally from a launch on Thu, 04 Jun 1981 UTC launched from the Plesetsk Missile And Space Complex (PKMTR). Debris objects in space refer to the collection of defunct objects orbiting the Earth. Examples of debris include non-operational satellites, rocket bodies, and fragments generated from explosions, collisions, or faulty payload assembly.

Loading next visibility...
Identifier
42164, 1981-053SC
Orbit
LEO
Country
Flag of CISCIS
Related business
Manufacturer
Unknown
Mission
Spacecraft
Bus & Motor
Unknown
Mass
Unknown
Launch date (UTC)
1981-06-04 (45 years ago)
Launch vehicle
Unknown
Launch site
Plesetsk Missile And Space Complex (PKMTR)
Object type
Payload
Rocket body
Debris
Shape & HBR
Unknown shape, 0.1 m
Radar Cross Section
Small (<0.1 m²)

Expand to show TLE details & history
Last TLE update: 6 days ago

TLE from 6 days ago
0 COSMOS 1275 DEB
1 42164U 81053SC  26030.44219387  .00015105  00000-0  33118-2 0  9993
2 42164  82.9173  95.6185 0022754 103.7198 256.6539 14.57393479635509
Epoch: 2026-01-30T10:36Z
TLE epoch observation values (Epoch: 2026-01-30T10:36:45.550Z)
Latitude
-0°
Longitude
166.74823°
Altitude
708.37 km
Speed
7.5 km/s
True Right ascension
06h 22m 28s
True Declination
0° 00' 00"
Sunlit
Object was in full shadow at epoch
Visualization orbit readout
Latitude
Unknown
Longitude
Unknown
Altitude
Unknown
Speed
Unknown
Apparent Right ascension
Unknown
Apparent Declination
Unknown
Sunlit
N/A
Visualization observer readout
Local Sidereal Time
06:45:42
Azimuth
Unknown
Elevation
Unknown
Doppler factor
Unknown
Orbital elements
Apogee altitude
714.742 km
Perigee altitude
682.537 km
Semi-major axis
7,076.776 km
Eccentricity
0.00228
Inclination
82.9173°
RAAN
95.6185°
Arg. of periapsis
103.7198°
True anomaly
256.40037°
Mean anomaly
256.6539°
Eccentric anomaly
256.52712°
Mean motion
3.64578 °/min
Orbital period
98.74 mins
BSTAR
0.0033118
Loading maneuver chart data...
Computing Atmospheric mass density...
Loading historical data...
Loading historical data...
Loading historical data...
Loading historical data...
Loading historical data...
Loading historical data...
Loading historical data...

Documentation

Showing up to 5 results
|